CAPE
3 4 0 0 2 0 0 0 0 0 0 0 0 0 0 0 0 0 0 0 0 0 7 13 0 0 1 0 0 0 0 0 0 0 0 0 0 0 0 0 0 0 0 0
3 5 4 1 0 3 0 0 0 0 4 0 0 0 0 0 0 0 0 0 0 0 0 1 0 0 2 1 0 0 0 0 0 0 0 0 0 0 0 0 0 0 0 0
3 5 6 2 4 1 0 0 0 0 1 0 3 2 0 0 0 0 0 0 0 0 0 0 5 4 1 6 0 10 0 0 0 0 0 0 0 0 0 0 0 0 0 0
2 3 3 4 4 0 0 0 0 0 0 0 0 0 0 0 0 1 0 0 0 0 3 1 14 5 5 0 4 0 0 0 0 0 0 0 0 0 0 0 0 0 0 0
4 2 1 0 9 0 0 0 3 0 1 1 0 0 0 2 0 0 0 0 0 0 0 0 0 1 2 0 0 0 0 0 0 0 0 0 0 0 0 0 0 0 0 0
4 3 2 1 9 1 0 1 7 17 0 0 0 0 1 0 0 0 1 0 0 0 0 0 0 0 0 0 0 0 0 0 0 0 0 0 0 0 0 0 0 0 0 0
1 3 6 8 3 19 3 0 7 8 1 0 0 0 1 0 0 1 0 0 0 0 0 0 0 0 0 12 0 0 0 0 0 0 0 0 0 0 0 0 0 0 0 0
3 4 9 12 6 14 8 0 7 5 0 5 0 1 1 0 0 0 0 0 0 0 0 0 0 2 1 5 3 4 0 2 0 0 0 0 0 0 0 0 0 0 0 0
6 8 15 27 14 4 6 0 2 17 8 0 1 0 2 0 0 0 0 0 0 0 0 0 0 0 0 0 1 2 0 0 0 0 0 0 2 0 0 0 0 0 0 0
5 8 14 22 23 11 11 5 0 12 5 0 0 3 1 1 2 0 0 0 0 0 0 0 0 1 0 0 0 0 0 1 0 0 0 0 0 0 0 0 0 0 0 0
2 7 10 19 22 12 4 0 0 7 6 0 0 0 0 2 2 0 0 0 0 0 0 0 6 5 0 0 0 0 0 0 0 0 0 0 0 0 0 0 0 0 0 0
3 5 8 14 15 13 11 5 0 4 8 0 0 0 0 0 0 2 0 0 0 2 3 0 0 0 0 0 0 1 0 0 0 1 1 0 0 0 0 0 0 0 0 0
1 4 4 7 5 5 7 2 0 1 3 0 0 0 0 0 0 0 1 0 0 8 1 14 5 0 0 0 0 0 0 1 0 0 0 0 0 0 0 0 0 0 0 0
0 3 2 3 1 1 3 0 0 1 1 0 0 0 0 0 0 0 0 0 0 0 0 8 0 1 1 0 0 0 0 0 0 0 0 0 0 0 0 0 0 0 0 0
0 1 0 1 0 1 1 0 0 0 0 0 0 0 0 0 0 0 0 0 0 0 9 1 0 8 1 4 0 0 2 0 0 0 0 0 0 0 0 0 0 0 0 0
0 0 0 1 0 3 0 0 0 1 0 2 0 0 0 0 0 0 2 0 0 0 4 1 0 0 0 0 0 0 0 0 0 0 0 0 0 0 0 0 0 0 0 0
0 0 0 0 0 0 0 0 0 0 0 0 0 0 0 0 0 0 0 1 0 10 27 8 0 3 3 2 0 0 0 0 0 0 2 0 0 0 0 0 0 0 0 0
0 0 0 0 1 0 0 0 0 0 0 0 0 0 0 0 1 3 0 0 0 1 11 0 0 0 0 0 0 0 1 0 0 0 0 0 0 0 0 0 0 0 0 0
0 0 0 0 0 0 0 0 0 0 0 0 2 0 0 0 13 3 1 0 0 0 0 1 0 0 0 0 0 2 0 2 2 0 0 0 0 0 0 0 0 0 0 0
0 0 0 0 0 0 0 0 0 0 0 0 1 0 0 2 24 3 0 0 0 0 0 0 0 0 2 5 2 2 7 0 0 0 0 0 0 0 0 0 0 0 0 0
0 0 0 0 0 0 0 0 0 0 0 0 0 0 0 0 4 0 1 0 0 0 0 0 0 0 0 1 3 3 0 0 0 0 0 0 0 0 1 0 0 0 0 0
0 0 0 1 0 0 0 0 0 0 0 0 0 0 0 0 0 0 0 0 0 0 0 1 5 1 8 7 8 4 1 2 1 3 0 0 0 0 0 0 0 0 0 0
0 1 1 0 0 0 0 0 0 0 0 0 0 0 0 0 0 0 0 0 0 0 0 0 4 3 0 0 0 0 3 22 30 19 10 2 0 1 0 0 0 0 0 0
0 0 0 0 0 0 0 0 0 0 0 0 0 0 0 0 0 0 0 0 0 0 0 0 0 2 0 0 0 0 0 2 2 15 19 23 9 1 0 0 0 0 0 0
0 0 0 0 0 0 0 0 0 0 0 0 0 0 0 0 0 0 0 0 0 0 0 0 0 0 0 0 0 0 0 15 18 18 14 5 6 3 4 0 0 0 0 0
0 0 0 0 0 0 0 0 0 0 0 0 0 0 0 0 0 0 0 0 0 0 0 0 0 0 0 0 0 1 11 18 19 8 13 7 5 5 2 5 1 0 0 0
0 0 0 0 0 0 0 0 0 0 0 0 0 0 0 0 0 0 0 0 0 0 0 0 0 0 0 0 0 0 0 0 0 4 14 1 0 1 3 2 1 0 0 0
CIN
-1 0 0 0 0 0 0 -1 0 0 0 0 0 0 0 0 0 0 0 0 0 0 -4 -1 -4 0 0 0 0 0 0 0 0 0 0 0 0 0 0 0 0 0 0 0
-1 0 0 -3 0 -1 -1 0 0 0 -39 0 0 0 0 0 0 0 0 0 0 0 0 -1 -2 0 -1 0 0 0 0 0 0 0 0 0 0 0 0 0 0 0 0 0
-1 -1 0 -3 -3 0 0 0 0 0 -5 0 -1 0 0 0 0 0 0 0 0 0 0 0 -5 -1 -3 -2 0 0 0 0 0 0 0 0 0 0 0 0 0 0 0 0
-1 0 0 -1 -3 -4 0 0 0 0 0 0 0 0 0 0 0 -4 0 0 -1 -1 -3 -14 -12 -8 -4 0 0 0 0 0 0 0 0 0 0 0 0 0 0 0 0 0
0 -1 -1 0 -1 0 0 0 -1 -9 0 -18 -1 0 0 0 0 0 0 0 0 0 0 0 0 0 -5 0 0 0 0 0 0 0 0 0 0 0 0 0 0 0 0 0
0 0 -1 -3 -1 -1 -3 -5 -8 0 0 -1 -1 -1 -2 0 -4 0 -4 0 0 0 0 0 0 0 -3 -2 0 0 0 0 0 0 0 0 0 0 0 0 0 0 0 0
0 0 -3 -4 -6 -1 -2 -2 -2 0 -1 -1 -1 0 0 0 0 0 0 0 0 0 0 0 0 0 -3 -8 0 0 0 0 0 0 0 0 0 0 0 0 0 0 0 0
0 -1 -2 -2 -7 -2 -3 0 -3 0 -1 0 0 0 0 0 0 0 0 0 0 0 0 0 0 -9 -2 -3 -2 -1 0 0 0 0 0 0 0 0 0 0 0 0 0 0
0 -1 0 0 -3 -6 -5 -1 -14 0 -1 0 -1 0 0 0 0 0 0 0 0 0 0 0 0 0 0 0 0 0 0 0 0 0 0 0 0 0 0 0 0 0 0 0
0 0 0 0 -1 -8 -2 -3 -1 -1 0 0 0 0 0 0 0 0 0 0 0 0 0 0 -2 -2 0 0 0 0 0 0 0 0 0 0 0 0 0 0 0 0 0 0
0 0 0 0 0 -8 -4 -3 0 0 0 0 0 0 0 0 0 -2 0 0 -3 0 0 0 -7 -3 0 0 0 0 0 0 0 0 0 0 0 0 0 0 0 0 0 0
0 0 0 0 -4 -5 -3 -2 0 -10 0 0 0 0 0 0 0 0 0 0 -1 -9 -6 -2 0 0 0 0 0 0 0 0 0 0 0 0 0 0 0 0 0 0 0 0
0 0 -1 -1 -1 -6 -4 -5 0 0 0 0 0 0 0 0 0 0 0 0 -13 -9 -3 0 0 -2 0 0 0 0 0 0 0 0 0 0 0 0 0 0 0 0 0 0
0 0 0 0 0 -1 -1 0 -1 -1 0 0 0 0 0 0 0 0 0 0 0 0 -1 -2 0 -8 0 0 0 0 0 0 0 0 0 0 0 0 0 0 0 0 0 0
0 0 0 0 0 0 0 0 0 0 0 0 0 0 0 0 0 0 0 0 0 0 -3 -8 -5 -8 0 -11 0 0 -13 -5 0 0 0 0 0 0 0 0 0 0 0 0
0 0 0 0 0 0 0 0 0 0 0 0 0 0 0 0 -5 0 -3 0 0 0 -1 -10 -1 0 0 0 0 -5 0 -5 -7 0 0 0 0 0 0 0 0 0 0 0
0 0 0 0 0 0 0 0 0 0 0 0 0 0 0 0 -3 -3 -1 -6 -8 -7 -1 -9 0 -14 -14 -5 0 0 0 0 0 0 -13 0 0 0 0 0 0 0 0 0
0 0 0 0 0 0 0 0 0 0 -2 0 0 0 0 0 0 0 0 -1 0 -18 -8 0 0 0 0 -1 -1 0 0 0 0 0 0 0 0 0 0 0 0 0 0 0
0 0 0 0 0 0 0 0 0 0 0 0 0 0 -6 0 -4 -7 -4 0 0 0 0 0 0 0 0 0 0 0 0 0 0 0 0 0 0 0 0 0 0 0 0 0
0 0 0 0 0 0 0 0 0 0 0 -1 -1 0 0 -1 -1 -7 0 0 0 0 0 0 0 0 0 0 0 0 0 0 0 0 0 0 0 0 0 0 0 0 0 0
0 0 0 0 0 0 0 0 0 0 0 0 -42 0 0 0 -3 0 0 0 -1 0 0 0 0 0 0 -1 -1 -2 -5 0 0 0 0 0 0 0 0 0 0 0 0 0
0 0 0 0 0 0 0 0 0 0 0 0 0 0 0 -3 0 0 0 0 0 0 0 0 -7 -6 -16 -33 -24 -12 -17 -12 -6 -9 0 0 0 0 0 0 0 0 0 0
0 0 0 0 0 0 0 0 0 0 0 0 0 0 0 0 0 0 0 0 0 0 0 -5 -8 -10 -2 0 0 0 -23 -5 -3 0 -2 -4 -1 -5 0 0 0 0 0 0
0 0 0 0 0 0 0 0 0 0 0 0 0 0 0 0 0 0 0 0 0 0 0 -1 -1 -14 0 0 0 0 0 -17 -13 -1 -1 0 -1 -2 0 0 0 0 0 0
0 0 0 0 0 0 0 0 0 0 0 0 0 0 0 0 0 0 0 0 0 0 0 0 0 0 0 0 0 0 -3 -20 -16 -11 -2 0 0 0 0 -1 0 0 0 0
0 0 0 0 0 0 0 0 0 0 0 0 0 0 0 0 0 0 0 0 0 0 0 0 0 0 0 0 0 -13 -30 -28 -17 -9 -13 -9 0 0 -1 -1 0 0 0 0
0 0 0 0 0 0 0 0 0 0 0 0 0 -2 0 0 0 0 0 0 0 0 0 0 0 0 0 0 0 0 0 0 0 -27 -19 -1 0 0 0 0 0 0 0 0
Wind_Speed
35 35 37 37 37 37 31 25 24 18 22 21 21 22 22 25 25 25 25 25 28 29 26 25 26 29 28 25 25 33 34 36 38 37 28 33 32 35 31 35 35 37 27 30
34 34 34 35 37 34 26 25 18 15 18 21 24 24 24 22 26 25 22 24 24 27 28 28 26 27 23 23 27 27 30 40 40 30 32 30 37 48 51 33 27 45 38 24
33 33 31 31 30 30 25 21 22 17 17 20 25 27 24 25 25 24 23 25 25 25 27 27 27 28 23 23 25 25 26 38 43 43 31 26 32 43 50 50 45 31 39 24
31 30 26 24 23 25 21 20 17 18 14 14 26 27 24 26 25 25 24 21 21 23 25 25 23 23 23 21 21 25 27 38 39 46 41 29 29 35 44 51 48 43 36 35
30 27 22 16 18 22 19 18 17 15 9 8 5 10 19 26 26 26 23 22 26 25 27 27 28 23 21 22 23 24 26 34 34 42 44 42 36 33 39 48 48 50 37 39
29 26 20 15 14 19 14 14 14 11 8 9 10 11 10 6 28 25 22 29 30 29 30 26 29 29 28 24 26 26 28 30 34 41 33 38 44 43 35 33 41 47 45 45
27 24 19 14 10 15 12 12 12 12 10 8 7 6 3 7 14 30 31 29 28 25 28 32 31 31 30 28 31 30 31 33 32 36 31 40 32 22 32 34 22 33 39 31
24 21 17 14 8 8 9 11 11 13 10 8 8 10 8 5 10 19 25 23 24 27 27 26 27 24 24 26 25 23 29 32 35 35 37 29 25 20 26 26 26 20 29 32
23 19 15 13 5 8 11 10 10 10 9 12 11 9 9 13 10 12 14 12 17 18 20 22 28 26 24 25 24 19 21 32 36 33 36 38 27 28 24 23 28 21 24 27
20 16 12 9 7 6 10 10 10 9 6 7 11 10 10 12 12 8 5 11 17 16 17 22 26 29 25 26 28 28 23 25 35 35 34 28 22 23 17 28 31 26 26 27
16 11 7 6 6 7 11 8 9 8 5 1 7 9 7 6 8 11 5 4 13 17 15 19 22 24 24 26 24 25 27 27 31 31 34 35 21 16 21 23 24 26 26 27
13 9 5 3 4 6 10 10 11 11 7 3 3 3 9 6 8 5 10 11 11 13 16 18 20 20 18 20 26 22 27 23 28 26 27 26 20 19 18 20 25 25 26 27
12 8 4 2 4 6 9 8 9 10 8 5 10 12 13 11 7 9 10 10 12 12 15 18 19 20 18 17 18 19 21 22 25 24 25 26 26 21 21 22 23 26 25 26
12 8 3 2 5 8 10 11 13 14 13 13 11 10 7 8 10 9 9 7 8 11 15 19 19 20 16 19 18 18 19 21 25 24 24 23 16 23 25 26 26 26 25 24
13 10 5 1 6 8 10 9 9 9 15 12 7 1 17 16 15 11 7 7 11 10 15 18 19 19 19 18 18 19 18 20 22 23 21 26 30 27 27 27 27 27 26 26
14 9 8 2 5 10 14 14 13 10 13 12 14 12 8 6 14 4 8 8 12 12 13 18 17 17 18 21 22 17 17 20 21 25 24 28 35 32 29 28 29 28 27 27
14 10 7 1 7 12 15 15 13 14 13 12 10 11 12 11 9 13 12 13 14 14 14 13 17 18 18 21 26 25 23 22 23 22 26 28 30 31 33 32 30 28 28 27
15 10 7 12 11 11 13 14 11 13 13 14 15 14 11 16 13 14 11 14 16 17 14 13 17 17 17 21 22 25 27 29 29 25 27 32 34 34 33 32 30 30 28 27
14 12 14 13 12 12 12 16 18 14 14 17 17 19 18 13 16 17 14 14 17 14 16 16 8 15 17 22 25 27 29 30 32 31 30 31 32 33 33 33 32 31 30 28
16 18 16 13 14 7 15 15 14 14 15 16 17 17 16 15 15 17 17 17 19 18 15 9 17 16 5 21 24 24 25 24 26 29 30 31 33 34 34 35 35 34 34 31
24 22 16 13 10 13 14 13 14 14 14 15 16 16 15 15 16 16 17 17 16 19 18 20 20 14 21 22 23 24 23 25 28 31 33 33 34 36 37 37 37 36 35 34
17 11 10 12 14 14 14 14 13 13 12 14 16 18 16 15 15 16 15 16 15 18 12 18 21 12 3 24 25 25 25 26 28 31 34 36 37 37 38 39 40 39 37 37
16 16 15 15 15 14 14 15 12 11 12 13 15 16 17 16 17 16 16 16 14 10 16 16 14 2 5 16 26 28 28 28 30 32 33 35 38 38 39 40 41 41 41 39
19 19 18 14 14 12 13 12 11 9 8 9 12 13 15 16 16 15 14 14 15 17 16 12 5 5 7 6 17 28 31 31 32 33 32 33 35 38 39 39 39 41 43 43
17 17 18 14 11 12 12 11 13 12 11 13 14 13 13 14 13 14 13 13 15 15 17 12 3 9 4 7 14 18 21 28 32 33 36 34 35 36 38 39 39 39 40 43
15 13 13 14 14 10 12 12 12 15 15 17 17 14 11 10 11 10 11 10 10 10 11 3 5 28 23 11 9 10 18 23 32 34 35 36 35 35 35 33 34 38 40 44
14 15 10 12 15 10 8 8 8 12 15 17 16 15 12 13 10 9 9 8 8 4 5 25 25 23 28 27 28 33 33 28 31 32 34 34 34 33 32 30 30 29 35 41
Wind_Direction
15 14 11 11 10 8 19 28 27 41 5 353 343 338 328 319 302 304 298 285 266 260 265 260 249 243 257 272 264 236 235 238 237 238 245 236 235 238 240 245 242 244 259 256
15 13 13 14 14 16 23 28 44 59 44 348 343 333 325 329 309 301 304 287 275 266 259 258 251 252 265 265 258 244 239 230 228 236 237 237 233 228 221 238 249 214 242 257
14 14 16 17 20 21 29 38 39 54 61 20 337 331 311 319 325 288 302 290 275 268 255 259 250 253 258 268 257 250 245 231 229 227 236 236 234 228 220 226 229 241 230 251
14 15 17 21 26 28 41 44 47 48 45 38 342 329 334 301 307 316 299 298 294 273 256 255 250 257 260 267 257 251 245 230 235 233 234 239 239 235 229 221 203 231 235 242
14 16 18 18 28 32 48 52 49 49 49 58 75 66 5 324 309 316 297 302 281 275 256 251 254 261 259 254 253 250 246 231 240 231 233 235 239 240 236 222 228 221 241 241
14 16 17 18 28 41 58 59 56 65 77 77 76 73 59 265 296 301 314 288 279 272 258 261 253 258 251 259 248 248 240 239 234 227 236 235 238 234 240 240 234 218 230 213
15 17 17 19 27 44 65 70 67 63 62 73 75 62 9 252 248 286 277 275 272 275 278 276 255 248 246 251 247 245 239 237 231 226 230 227 237 255 246 242 253 242 233 248
15 16 17 21 31 57 80 70 77 72 71 73 64 62 41 29 253 261 277 278 294 285 270 254 244 242 238 244 245 245 240 233 226 222 225 233 238 255 248 240 239 256 243 247
16 16 19 28 41 67 77 79 85 80 68 70 68 43 54 53 70 270 270 264 268 297 260 247 233 236 236 237 239 248 256 227 222 222 221 223 244 260 257 242 232 264 257 251
14 14 18 31 54 81 82 79 83 69 62 66 58 50 59 72 73 100 124 277 292 300 272 247 238 235 241 236 235 234 239 228 222 223 224 231 275 272 240 228 237 265 260 257
8 2 4 31 55 81 77 80 77 76 74 33 67 71 84 86 89 89 109 153 307 287 283 255 253 242 241 244 244 240 235 232 225 225 224 225 287 258 235 249 261 264 265 262
352 346 351 15 65 89 93 85 88 88 89 82 36 229 213 180 186 138 107 103 111 273 286 272 258 248 250 247 240 249 237 237 230 232 230 250 267 255 264 274 267 272 270 270
348 348 2 16 83 91 93 89 83 76 72 77 89 85 82 85 117 133 104 107 103 110 279 282 266 250 257 250 251 248 247 251 239 240 244 252 255 257 277 280 280 275 277 275
347 326 340 55 81 81 77 77 75 69 60 63 68 76 64 88 89 100 146 141 97 107 246 284 268 253 266 257 256 259 258 253 244 246 248 251 252 274 278 279 280 280 282 284
354 310 290 116 85 78 68 78 82 86 62 56 55 355 50 52 53 54 92 159 187 157 241 292 272 267 269 268 256 253 259 255 246 242 255 252 259 276 278 278 278 281 277 281
355 329 276 224 98 73 59 64 77 86 70 60 64 65 79 55 52 75 112 117 156 135 123 312 295 278 269 258 251 277 288 275 272 261 268 265 264 270 274 278 280 280 279 278
339 333 290 215 90 71 59 63 57 69 70 69 68 64 67 60 83 84 105 113 129 139 129 119 289 283 277 268 256 271 283 290 285 277 272 265 268 265 275 277 278 280 280 277
329 333 29 53 64 54 53 63 72 79 72 76 70 61 72 68 74 91 112 115 118 119 128 125 277 289 288 271 280 278 273 276 276 278 279 268 267 272 273 277 275 276 277 279
324 16 53 59 66 59 54 41 61 92 79 66 69 57 61 69 74 83 99 114 107 125 109 111 243 298 290 284 289 288 276 271 269 274 277 272 270 271 271 273 273 271 271 272
18 34 39 47 50 52 42 55 67 74 75 73 64 64 57 72 80 87 92 98 99 98 112 150 115 97 155 309 292 297 291 282 272 271 272 274 273 273 273 268 268 268 267 271
22 20 31 29 40 56 60 66 66 72 76 67 58 52 53 78 74 88 93 100 101 94 97 93 89 56 326 321 311 308 301 288 273 268 272 274 273 271 272 269 267 267 268 268
12 7 16 35 38 47 59 62 67 76 82 56 48 41 55 71 85 89 100 105 105 95 100 91 77 84 283 322 323 320 323 311 294 281 276 273 272 274 271 269 264 265 267 267
25 30 31 35 37 36 41 44 59 66 55 48 39 38 49 60 65 78 86 87 94 109 89 90 81 45 303 305 322 329 331 329 318 304 291 281 278 276 273 272 266 265 264 266
13 13 14 32 34 34 36 38 45 55 51 33 30 43 52 50 53 60 67 70 71 69 73 91 80 315 298 313 313 332 336 338 334 329 312 294 286 279 277 272 272 266 263 263
9 13 9 16 27 26 27 30 21 27 29 28 27 42 48 48 63 59 70 74 62 60 44 56 264 286 279 286 309 315 316 326 332 331 332 318 308 299 282 273 271 266 264 261
2 3 3 5 7 13 14 16 18 16 18 20 23 31 50 66 69 71 73 71 76 57 51 63 40 315 305 48 40 301 303 309 326 332 332 332 325 315 305 292 277 266 262 260
359 355 356 349 351 3 16 23 25 24 14 5 14 18 32 30 52 64 79 66 51 54 20 346 348 359 350 352 359 343 324 311 320 324 329 329 327 327 320 312 297 286 273 264